Weather Service Report


107 
ASUS45 KCYS 280010
RWRWY 

WYOMING REGIONAL WEATHER ROUNDUP
NATIONAL WEATHER SERVICE CHEYENNE WY
500 PM MST MON FEB 27 2017

NOTE:  "FAIR" INDICATES FEW OR NO CLOUDS BELOW 12,000 FEET
WITH NO SIGNIFICANT WEATHER AND/OR OBSTRUCTIONS TO VISIBILITY.

WYZ001-280100-
YELLOWSTONE NATIONAL PARK
  
CITY           SKY/WX    TMP DP  RH WIND       PRES   REMARKS
LK YELLOWSTONE   N/A     15  10  80 VRB6      29.50R WCI   6          
6HR MIN TEMP:  14; 6HR MAX TEMP:  20; 6HR PCP:  0.04;                

W YELLOWSTONE  NOT AVBL                                               

$$
WYZ002>013-054>058-071-098>099-280100-
NORTHERN WYOMING
  
CITY           SKY/WX    TMP DP  RH WIND       PRES   REMARKS
JACKSON        LGT SNOW  21  16  79 SW9       29.57R WCI  11          
CODY           FAIR      31  16  54 SE12      29.52R WCI  22          
GREYBULL       FAIR      36  18  48 SE6       29.53S WCI  31          
6HR MIN TEMP:  30; 6HR MAX TEMP:  38;                                

WORLAND        FAIR      35  19  52 SE7       29.53S WCI  29          
6HR MIN TEMP:  30; 6HR MAX TEMP:  37;                                

SHERIDAN       FAIR      32  19  58 VRB6      29.59R WCI  26          
6HR MIN TEMP:  26; 6HR MAX TEMP:  32;                                

BUFFALO        FAIR      30  12  47 CALM      29.55S                  
6HR MIN TEMP:  26; 6HR MAX TEMP:  32;                                

GILLETTE       FAIR      33  14  45 NE7       29.57R WCI  27          
6HR MIN TEMP:  33; 6HR MAX TEMP:  38;                                

HULETT         FAIR      34  14  44 NE7       29.60R WCI  28          
NEWCASTLE      FAIR      30  27  86 SE3       29.60S                  

$$
WYZ014>020-022>026-101>103-280100-
CENTRAL WYOMING
  
CITY           SKY/WX    TMP DP  RH WIND       PRES   REMARKS
BIG PINEY      PTSUNNY   17  14  88 NW7       29.59R WCI   8          
6HR MIN TEMP:  14; 6HR MAX TEMP:  20; 6HR PCP: TRACE;                

PINEDALE       LGT SNOW  19  14  79 NE3       29.59R                  
DUBOIS         CLOUDY    21  10  63 W14G22    29.49R WCI   8          
LANDER         PTSUNNY   29  13  51 SW12      29.53R WCI  19          
6HR MIN TEMP:  23; 6HR MAX TEMP:  29;                                

RIVERTON       FAIR      23  15  71 NE3       29.54R                  
6HR MIN TEMP:  20; 6HR MAX TEMP:  26;                                

CASPER         CLOUDY    30  21  69 SW9       29.58R WCI  22          
6HR MIN TEMP:  28; 6HR MAX TEMP:  33;                                

DOUGLAS        FAIR      29  23  78 N3        29.59R                  
6HR MIN TEMP:  26; 6HR MAX TEMP:  31; 6HR PCP:  0.03;                


$$
WYZ021-027>030-104>119-280100-
SOUTHERN WYOMING
  
CITY           SKY/WX    TMP DP  RH WIND       PRES   REMARKS
EVANSTON       LGT SNOW  19  14  81 W20       29.66R VSB 3/4 WCI   3  
6HR MIN TEMP:  19; 6HR MAX TEMP:  22; 6HR PCP: TRACE;                

FORT BRIDGER   CLOUDY    22  20  91 W18       29.68R WCI   8          
ROCK SPRINGS   CLOUDY    23  15  71 W21       29.63R WCI   8          
6HR MIN TEMP:  22; 6HR MAX TEMP:  25; 6HR PCP: TRACE;                

DIXON          SNOW      24  21  89 CALM      29.68R VSB 1/2          
RAWLINS        LGT SNOW  24  18  77 W17       29.61S WCI  11          
6HR MIN TEMP:  24; 6HR MAX TEMP:  26; 6HR PCP:  0.02;                

SARATOGA       LGT SNOW  23  23 100 W5        29.63R WCI  17          
LARAMIE        LGT SNOW  22  18  85 N15       29.58R VSB 1   WCI   9  
6HR MIN TEMP:  22; 6HR MAX TEMP:  37; 6HR PCP: TRACE;                

CHEYENNE       MOCLDY    31  23  72 N18G25    29.56R WCI  19          
6HR MIN TEMP:  31; 6HR MAX TEMP:  40;                                

TORRINGTON     MOCLDY    32  26  78 NW14      29.60R WCI  22          
6HR MIN TEMP:  22; 6HR MAX TEMP:  35;                                

PINE BLUFFS    FAIR      46  19  34 NW14G24   29.54R                  

$$
  

Return to Home page


Western Regional Climate Center, wrcc@dri.edu